GW0058 Weather Reports


Display with metric or nautical units.
time (UTC)temp
F
wind
direction
speed
MPH
gust
MPH
rain 1hr
in
rain 24hr
in
rain mn
in
humidity
%
barometer
mb
20260508122550 60 0 0.0 3.0 0.00 0.00 0.00 87 1014.9
20260508122048 59 324 1.0 3.0 0.00 0.00 0.00 87 1014.6
20260508121629 59 325 1.0 3.0 0.00 0.00 0.00 88 1014.5
20260508121118 59 0 0.0 3.0 0.00 0.00 0.00 88 1014.6
20260508120547 59 0 0.0 2.0 0.00 0.00 0.00 88 1014.6
20260508120050 59 0 0.0 2.0 0.00 0.00 0.00 88 1014.5
20260508115546 59 0 0.0 2.0 0.00 0.00 0.00 88 1014.6
20260508115045 59 0 0.0 1.0 0.00 0.00 0.00 89 1014.7
20260508114552 59 0 0.0 1.0 0.00 0.00 0.00 88 1014.8
20260508114047 59 0 0.0 2.0 0.00 0.00 0.00 89 1014.9
20260508113548 59 0 0.0 2.0 0.00 0.00 0.00 89 1014.9
20260508113049 59 0 0.0 2.0 0.00 0.00 0.00 89 1014.7
20260508112547 59 0 0.0 1.0 0.00 0.00 0.00 88 1015.0
20260508112047 59 0 0.0 0.0 0.00 0.00 0.00 87 1015.0
20260508111552 60 0 0.0 3.0 0.00 0.00 0.00 86 1015.2
20260508111047 60 0 0.0 3.0 0.00 0.00 0.00 83 1015.2
20260508110546 60 319 1.0 3.0 0.00 0.00 0.00 81 1015.4
20260508110050 60 286 0.0 3.0 0.00 0.00 0.00 81 1015.3
20260508105548 60 0 0.0 4.0 0.00 0.00 0.00 80 1015.3
20260508105045 60 304 1.0 4.0 0.00 0.00 0.00 80 1015.4
20260508104556 60 297 1.0 5.0 0.00 0.00 0.00 80 1015.2
20260508104046 60 0 0.0 5.0 0.00 0.00 0.00 80 1015.1
20260508103548 60 360 0.0 5.0 0.00 0.00 0.00 80 1014.9
20260508103051 60 326 1.0 5.0 0.00 0.00 0.00 80 1014.9
20260508102545 60 321 1.0 6.0 0.00 0.00 0.00 80 1015.0
20260508102049 61 317 1.0 6.0 0.00 0.00 0.00 80 1014.9
20260508101553 61 290 2.0 6.0 0.00 0.00 0.00 80 1014.9
20260508101048 61 335 0.0 2.0 0.00 0.00 0.00 80 1014.8
20260508100550 61 0 0.0 2.0 0.00 0.00 0.00 80 1014.7
20260508100052 61 0 0.0 3.0 0.00 0.00 0.00 81 1014.6
20260508095547 61 311 0.0 3.0 0.00 0.00 0.00 80 1014.6
20260508095046 61 0 0.0 3.0 0.00 0.00 0.00 80 1014.6
20260508094549 61 0 0.0 4.0 0.00 0.00 0.00 81 1014.6
20260508094048 60 31 1.0 4.0 0.00 0.00 0.00 81 1014.9
20260508093550 60 300 0.0 2.0 0.00 0.00 0.00 81 1014.9
20260508093053 60 0 0.0 3.0 0.00 0.00 0.00 81 1014.6
20260508092548 61 0 0.0 3.0 0.00 0.00 0.00 81 1014.7
20260508092049 60 34 0.0 1.0 0.00 0.00 0.00 81 1015.0
20260508091601 60 0 0.0 1.0 0.00 0.00 0.00 81 1015.0
20260508091048 60 0 0.0 0.0 0.00 0.00 0.00 81 1015.0
20260508090548 60 0 0.0 2.0 0.00 0.00 0.00 80 1014.9
20260508090104 60 0 0.0 2.0 0.00 0.00 0.00 81 1015.1
20260508085547 60 323 0.0 2.0 0.00 0.00 0.00 81 1015.0
20260508085047 60 323 0.0 2.0 0.00 0.00 0.00 81 1015.0
20260508084554 60 0 0.0 2.0 0.00 0.00 0.00 81 1015.0
20260508084047 60 0 0.0 2.0 0.00 0.00 0.00 82 1014.9
20260508083548 60 323 0.0 2.0 0.00 0.00 0.00 82 1015.0
20260508083055 60 0 0.0 1.0 0.00 0.00 0.00 82 1014.9
20260508082548 60 351 0.0 0.0 0.00 0.00 0.00 81 1015.1
20260508082049 60 0 0.0 0.0 0.00 0.00 0.00 80 1015.1
20260508081608 61 0 0.0 0.0 0.00 0.00 0.00 80 1015.1
20260508081049 61 0 0.0 0.0 0.00 0.00 0.00 79 1015.1
20260508080548 61 0 0.0 0.0 0.00 0.00 0.00 78 1015.1
20260508080056 61 0 0.0 0.0 0.00 0.00 0.00 78 1015.2
20260508075547 61 0 0.0 0.0 0.00 0.00 0.00 79 1015.2
20260508075049 61 0 0.0 0.0 0.00 0.00 0.00 78 1015.1
20260508074559 61 0 0.0 0.0 0.00 0.00 0.00 78 1015.3
20260508074050 61 0 0.0 0.0 0.00 0.00 0.00 77 1015.4
20260508073551 61 0 0.0 2.0 0.00 0.00 0.00 78 1015.4
20260508073103 61 0 0.0 2.0 0.00 0.00 0.00 77 1015.5
20260508072548 61 107 0.0 1.0 0.00 0.00 0.00 77 1015.3
20260508072048 61 0 0.0 1.0 0.00 0.00 0.00 77 1015.4
20260508071623 61 0 0.0 1.0 0.00 0.00 0.00 77 1015.4
20260508071049 61 0 0.0 4.0 0.00 0.00 0.00 77 1015.5
20260508070548 61 0 0.0 4.0 0.00 0.00 0.00 77 1015.3
20260508070104 61 0 1.0 4.0 0.00 0.00 0.00 77 1015.4
20260508065548 61 111 0.0 2.0 0.00 0.00 0.00 78 1015.3
20260508065049 61 73 0.0 2.0 0.00 0.00 0.00 78 1015.3
20260508064554 61 311 0.0 3.0 0.00 0.00 0.00 78 1015.2
20260508064049 61 0 0.0 3.0 0.00 0.00 0.00 78 1015.1
20260508063550 61 0 0.0 3.0 0.00 0.00 0.00 78 1015.1
20260508063100 61 21 0.0 3.0 0.00 0.00 0.00 78 1015.2
20260508062547 61 0 0.0 2.0 0.00 0.00 0.00 78 1015.5
20260508062047 61 0 0.0 1.0 0.00 0.00 0.00 79 1015.6
20260508061556 61 0 0.0 0.0 0.00 0.00 0.00 79 1015.7
20260508061048 61 0 0.0 0.0 0.00 0.00 0.00 79 1015.9
20260508060547 60 0 0.0 0.0 0.00 0.00 0.00 80 1015.8
20260508060055 60 0 0.0 1.0 0.00 0.00 0.00 79 1015.9
20260508055552 60 0 0.0 1.0 0.00 0.00 0.00 79 1016.0
20260508055048 60 0 0.0 2.0 0.00 0.00 0.00 77 1015.8
20260508054556 61 0 0.0 2.0 0.00 0.00 0.00 77 1015.7
20260508054047 61 0 0.0 2.0 0.00 0.00 0.00 77 1015.5
20260508053547 61 0 0.0 3.0 0.00 0.00 0.00 77 1015.6
20260508053053 61 0 0.0 3.0 0.00 0.00 0.00 76 1015.8
20260508052549 61 24 0.0 3.0 0.00 0.00 0.00 76 1016.0
20260508052048 61 334 1.0 3.0 0.00 0.00 0.00 76 1016.1
20260508051548 61 321 0.0 3.0 0.00 0.00 0.00 75 1016.0
20260508051048 61 0 0.0 3.0 0.00 0.00 0.00 75 1016.1
20260508050548 61 0 0.0 3.0 0.00 0.00 0.00 75 1016.1
20260508050053 61 329 1.0 2.0 0.00 0.00 0.00 75 1016.1
20260508045548 61 304 0.0 4.0 0.00 0.00 0.00 75 1016.1
20260508045048 61 299 0.0 4.0 0.00 0.00 0.00 76 1015.8
20260508044558 61 344 2.0 6.0 0.00 0.00 0.00 75 1015.6
20260508044049 61 0 1.0 7.0 0.00 0.00 0.00 76 1015.8
20260508043547 61 320 2.0 7.0 0.00 0.00 0.00 76 1016.1
20260508043048 61 5 2.0 4.0 0.00 0.00 0.00 76 1015.8
20260508042549 61 0 0.0 2.0 0.00 0.00 0.00 76 1015.4
20260508042048 61 65 0.0 3.0 0.00 0.00 0.00 77 1015.1
20260508041550 61 323 0.0 3.0 0.00 0.00 0.00 77 1015.5
20260508041048 61 51 0.0 3.0 0.00 0.00 0.00 77 1015.2
20260508040548 61 82 1.0 3.0 0.00 0.00 0.00 77 1015.1
20260508040055 61 0 0.0 3.0 0.00 0.00 0.00 77 1015.3
20260508035547 61 0 0.0 2.0 0.00 0.00 0.00 76 1015.4
20260508035047 61 0 0.0 1.0 0.00 0.00 0.00 76 1015.6
20260508034550 62 0 0.0 1.0 0.00 0.00 0.00 75 1016.0
20260508034047 62 0 0.0 1.0 0.00 0.00 0.00 74 1016.2
20260508033548 62 0 0.0 1.0 0.00 0.00 0.00 75 1016.1
20260508033112 62 0 0.0 1.0 0.00 0.00 0.00 74 1016.2
20260508032547 62 0 0.0 1.0 0.00 0.00 0.00 75 1016.2
20260508032051 62 0 0.0 1.0 0.00 0.00 0.00 74 1016.3
20260508031548 62 0 0.0 1.0 0.00 0.00 0.00 73 1016.5
20260508031051 62 0 0.0 3.0 0.00 0.00 0.00 72 1016.8
20260508030547 63 0 0.0 3.0 0.00 0.00 0.00 72 1016.9
20260508030109 62 0 1.0 3.0 0.00 0.00 0.00 72 1017.0
20260508025547 63 305 0.0 2.0 0.00 0.00 0.00 71 1016.9
20260508025045 63 110 0.0 2.0 0.00 0.00 0.00 71 1016.8
20260508024616 63 0 0.0 2.0 0.00 0.00 0.00 70 1016.7
20260508024048 62 37 0.0 3.0 0.00 0.00 0.00 70 1016.5
20260508023548 62 310 0.0 3.0 0.00 0.00 0.00 71 1016.4
20260508023057 62 355 0.0 3.0 0.00 0.00 0.00 72 1016.3
20260508022547 62 0 1.0 3.0 0.00 0.00 0.00 72 1015.6
20260508022048 62 84 0.0 2.0 0.00 0.00 0.00 72 1015.3
20260508021600 62 83 0.0 3.0 0.00 0.00 0.00 72 1014.9
20260508021050 62 65 0.0 3.0 0.00 0.00 0.00 72 1014.8
20260508020546 63 115 0.0 2.0 0.00 0.00 0.00 72 1014.7
20260508020110 63 0 0.0 3.0 0.00 0.00 0.00 71 1014.9
20260508015546 63 100 0.0 3.0 0.00 0.00 0.00 71 1014.7
20260508015046 63 0 0.0 4.0 0.00 0.00 0.00 71 1014.3
20260508014604 63 59 0.0 7.0 0.00 0.00 0.00 71 1014.0
20260508014047 63 104 1.0 7.0 0.00 0.00 0.00 71 1013.8
20260508013546 63 111 1.0 7.0 0.00 0.00 0.00 70 1014.0
20260508013105 63 61 2.0 6.0 0.00 0.00 0.00 69 1014.0
20260508012548 64 114 1.0 5.0 0.00 0.00 0.00 69 1014.3
20260508012047 64 355 1.0 5.0 0.00 0.00 0.00 68 1014.5
20260508011559 64 95 1.0 4.0 0.00 0.00 0.00 68 1014.6
20260508011049 64 108 0.0 5.0 0.00 0.00 0.00 68 1014.9
20260508010547 64 267 2.0 5.0 0.00 0.00 0.00 67 1015.3
20260508010106 64 290 0.0 6.0 0.00 0.00 0.00 68 1014.9
20260508005547 64 71 1.0 10.0 0.00 0.00 0.00 67 1015.0
20260508005048 64 313 3.0 10.0 0.00 0.00 0.00 67 1015.0
20260508004552 64 286 2.0 7.0 0.00 0.00 0.00 68 1014.4
20260508004045 65 296 1.0 8.0 0.00 0.00 0.00 68 1013.3
20260508003545 65 76 2.0 8.0 0.00 0.00 0.00 68 1013.0
20260508003050 65 98 2.0 8.0 0.00 0.00 0.00 67 1013.5
20260508002547 65 52 1.0 8.0 0.00 0.00 0.00 66 1014.4
20260508002048 65 66 3.0 8.0 0.00 0.00 0.00 65 1014.7
20260508001602 66 135 2.0 7.0 0.00 0.00 0.00 65 1014.9
20260508001048 66 0 2.0 6.0 0.00 0.00 0.00 64 1015.1
20260508000546 66 32 2.0 6.0 0.00 0.00 0.00 65 1015.2
20260508000058 66 98 1.0 6.0 0.00 0.00 0.00 64 1015.4
20260507235547 67 0 0.0 4.0 0.00 0.00 0.00 64 1015.5
20260507235047 67 0 0.0 3.0 0.00 0.00 0.00 64 1015.7
20260507234549 67 0 0.0 4.0 0.00 0.00 0.00 62 1015.8
20260507234047 67 131 0.0 4.0 0.00 0.00 0.00 62 1016.0
20260507233546 67 91 1.0 4.0 0.00 0.00 0.00 62 1016.1
20260507233047 67 49 0.0 3.0 0.00 0.00 0.00 61 1016.2
20260507232545 68 0 1.0 4.0 0.00 0.00 0.00 61 1016.2
20260507232045 68 117 1.0 4.0 0.00 0.00 0.00 60 1016.0
20260507231547 69 29 1.0 7.0 0.00 0.00 0.00 59 1015.9
20260507231047 69 325 1.0 7.0 0.00 0.00 0.00 59 1016.1
20260507230549 69 5 1.0 5.0 0.00 0.00 0.00 59 1016.0
20260507230054 68 0 2.0 5.0 0.00 0.00 0.00 58 1015.9
20260507225551 69 310 1.0 6.0 0.00 0.00 0.00 58 1016.0
20260507225045 69 64 1.0 6.0 0.00 0.00 0.00 58 1016.3
20260507224553 68 45 2.0 8.0 0.00 0.00 0.00 59 1016.4
20260507224045 68 257 1.0 8.0 0.00 0.00 0.00 61 1016.5
20260507223548 69 287 2.0 8.0 0.00 0.00 0.00 59 1016.4
20260507223052 69 301 0.0 6.0 0.00 0.00 0.00 63 1016.5
20260507222547 69 24 1.0 6.0 0.00 0.00 0.00 62 1016.3
20260507222049 68 0 1.0 4.0 0.00 0.00 0.00 63 1016.1
20260507221549 68 0 0.0 4.0 0.00 0.00 0.00 60 1016.3
20260507221046 67 161 1.0 4.0 0.00 0.00 0.00 60 1016.4
20260507220548 67 115 1.0 5.0 0.00 0.00 0.00 61 1016.4
20260507220049 67 208 2.0 7.0 0.00 0.00 0.00 61 1016.5
20260507215547 67 296 2.0 8.0 0.00 0.00 0.00 60 1016.7
20260507215046 67 303 1.0 8.0 0.00 0.00 0.00 61 1016.9
20260507214549 67 299 2.0 8.0 0.00 0.00 0.00 61 1016.8
20260507214045 67 28 1.0 8.0 0.00 0.00 0.00 62 1016.6
20260507213548 67 37 1.0 8.0 0.00 0.00 0.00 61 1016.5
20260507213058 67 47 1.0 7.0 0.00 0.00 0.00 62 1016.5
20260507212545 66 33 1.0 7.0 0.00 0.00 0.00 62 1016.7
20260507212045 66 26 1.0 9.0 0.00 0.00 0.00 63 1016.9
20260507211554 65 350 3.0 9.0 0.00 0.00 0.00 63 1017.1
20260507211046 66 42 4.0 9.0 0.00 0.00 0.00 63 1017.1
20260507210546 67 35 1.0 6.0 0.00 0.00 0.00 66 1016.7
20260507210052 67 17 2.0 7.0 0.00 0.00 0.00 65 1016.4
20260507205546 67 350 2.0 7.0 0.00 0.00 0.00 64 1016.6
20260507205048 67 0 1.0 9.0 0.00 0.00 0.00 64 1016.8
20260507204555 67 23 2.0 9.0 0.00 0.00 0.00 62 1016.9
20260507204047 68 70 2.0 9.0 0.00 0.00 0.00 63 1016.8
20260507203547 68 355 3.0 10.0 0.00 0.00 0.00 62 1016.3
20260507203101 68 90 3.0 10.0 0.00 0.00 0.00 63 1016.0
20260507202550 68 5 2.0 8.0 0.00 0.00 0.00 64 1016.0
20260507202048 68 55 2.0 9.0 0.00 0.00 0.00 64 1016.1
20260507201559 67 0 2.0 9.0 0.00 0.00 0.00 65 1016.3
20260507201048 67 235 3.0 8.0 0.00 0.00 0.00 65 1016.7
20260507200604 67 340 2.0 8.0 0.00 0.00 0.00 66 1017.0
20260507200054 67 355 1.0 6.0 0.00 0.00 0.00 65 1017.1
20260507195550 66 329 1.0 11.0 0.00 0.00 0.00 67 1017.0
20260507195054 66 117 2.0 11.0 0.00 0.00 0.00 67 1017.3
20260507194612 66 300 2.0 8.0 0.00 0.00 0.00 67 1017.3
20260507194050 67 79 2.0 10.0 0.00 0.00 0.00 66 1017.2
20260507193550 68 16 2.0 10.0 0.00 0.00 0.00 65 1017.3
20260507193055 68 311 2.0 10.0 0.00 0.00 0.00 67 1016.8
20260507192547 67 343 2.0 13.0 0.00 0.00 0.00 66 1017.3
20260507192047 67 51 1.0 13.0 0.00 0.00 0.00 67 1017.2
20260507191556 68 17 3.0 13.0 0.00 0.00 0.00 67 1017.5
20260507191048 68 5 2.0 9.0 0.00 0.00 0.00 70 1017.2
20260507190548 67 24 3.0 9.0 0.00 0.00 0.00 69 1016.8
20260507190058 66 230 2.0 9.0 0.00 0.00 0.00 71 1017.1
20260507185547 64 137 2.0 7.0 0.00 0.00 0.00 73 1017.2
20260507185047 64 98 2.0 8.0 0.00 0.00 0.00 74 1017.5
20260507184555 64 260 2.0 8.0 0.00 0.00 0.00 75 1017.7
20260507184048 63 304 2.0 7.0 0.00 0.00 0.00 74 1018.2
20260507183546 63 0 1.0 5.0 0.00 0.00 0.00 76 1018.5
20260507183101 63 314 2.0 5.0 0.00 0.00 0.00 75 1018.6
20260507182546 64 37 1.0 5.0 0.00 0.00 0.00 75 1018.3
20260507182046 64 66 1.0 9.0 0.00 0.00 0.00 75 1018.3
20260507181556 64 88 1.0 9.0 0.00 0.00 0.00 75 1018.6
20260507181047 64 11 1.0 6.0 0.00 0.00 0.00 74 1018.8
20260507180547 64 24 1.0 6.0 0.00 0.00 0.00 75 1018.7
20260507180057 64 360 2.0 12.0 0.00 0.00 0.00 76 1018.6
20260507175545 63 335 3.0 12.0 0.00 0.00 0.00 78 1018.4
20260507175047 63 11 1.0 8.0 0.00 0.00 0.00 77 1018.4
20260507174546 63 65 1.0 8.0 0.00 0.00 0.00 79 1018.2
20260507174046 63 302 1.0 10.0 0.00 0.00 0.00 78 1018.3
20260507173546 63 298 1.0 10.0 0.00 0.00 0.00 78 1018.5
20260507173059 63 355 2.0 10.0 0.00 0.00 0.00 79 1018.6
20260507172550 63 252 3.0 7.0 0.00 0.00 0.00 78 1018.5
20260507172046 63 200 1.0 4.0 0.00 0.00 0.00 80 1018.3
20260507171555 62 68 0.0 8.0 0.00 0.00 0.00 82 1018.0
20260507171046 61 63 2.0 8.0 0.00 0.00 0.00 82 1018.1
20260507170546 61 63 1.0 9.0 0.00 0.00 0.00 84 1018.3
20260507170055 60 304 2.0 9.0 0.00 0.00 0.00 84 1018.2
20260507165545 59 77 2.0 5.0 0.00 0.00 0.00 85 1017.8
20260507165045 59 32 1.0 6.0 0.00 0.00 0.00 85 1018.6
20260507164553 59 347 1.0 6.0 0.00 0.00 0.00 86 1018.8
20260507164046 58 331 1.0 7.0 0.00 0.00 0.00 86 1018.8
20260507163552 58 0 1.0 9.0 0.00 0.00 0.00 86 1019.0
20260507163058 58 269 2.0 9.0 0.00 0.00 0.00 87 1018.8
20260507162547 58 101 1.0 8.0 0.00 0.00 0.00 87 1018.8
20260507162047 58 0 1.0 8.0 0.00 0.00 0.00 87 1019.0
20260507161559 58 272 1.0 8.0 0.00 0.00 0.00 87 1019.2
20260507161046 58 355 1.0 9.0 0.00 0.00 0.00 87 1019.2
20260507160546 58 62 2.0 10.0 0.00 0.00 0.00 87 1019.0
20260507160053 58 271 3.0 10.0 0.00 0.00 0.00 87 1019.0
20260507155545 58 32 3.0 10.0 0.00 0.00 0.00 87 1018.7
20260507155047 58 314 3.0 9.0 0.00 0.00 0.00 87 1019.0
20260507154556 58 300 2.0 11.0 0.00 0.00 0.00 87 1018.4
20260507154047 58 336 3.0 11.0 0.00 0.00 0.00 88 1018.4
20260507153546 58 320 2.0 9.0 0.00 0.00 0.00 88 1018.8
20260507153103 58 284 2.0 9.0 0.00 0.00 0.00 89 1018.8
20260507152548 57 307 3.0 9.0 0.00 0.00 0.00 89 1018.7
20260507152046 57 247 2.0 10.0 0.00 0.00 0.00 90 1018.7
20260507151553 57 257 2.0 10.0 0.00 0.00 0.00 91 1018.8
20260507151049 57 360 3.0 10.0 0.00 0.00 0.00 91 1018.8
20260507150548 56 336 2.0 9.0 0.00 0.00 0.00 92 1018.7
20260507150058 56 318 3.0 8.0 0.00 0.00 0.00 92 1018.8
20260507145547 56 355 2.0 15.0 0.00 0.00 0.00 92 1018.7
20260507145048 56 329 4.0 15.0 0.00 0.00 0.00 92 1018.9
20260507144556 56 335 2.0 10.0 0.00 0.00 0.00 92 1018.8
20260507144048 56 42 3.0 10.0 0.00 0.00 0.00 92 1018.8
20260507143546 56 305 2.0 8.0 0.00 0.00 0.00 92 1019.0
20260507143107 56 346 2.0 10.0 0.00 0.00 0.00 92 1019.2
20260507142556 56 355 3.0 12.0 0.00 0.00 0.00 92 1019.1
20260507142049 56 331 3.0 12.0 0.00 0.00 0.00 91 1019.0
20260507141551 56 79 4.0 12.0 0.00 0.00 0.00 91 1019.1
20260507141048 56 318 3.0 10.0 0.00 0.00 0.00 90 1019.3
20260507140548 56 325 3.0 10.0 0.00 0.00 0.00 90 1019.5
20260507135548 56 18 3.0 9.0 0.00 0.00 0.00 89 1019.4
20260507135046 57 360 2.0 11.0 0.00 0.00 0.00 89 1019.5
20260507134551 57 258 3.0 11.0 0.00 0.00 0.00 88 1019.1
20260507134047 57 312 3.0 9.0 0.00 0.00 0.00 88 1018.4
20260507133548 57 321 3.0 12.0 0.00 0.00 0.00 87 1018.3
20260507133054 57 271 3.0 12.0 0.00 0.00 0.00 87 1018.7
20260507132548 57 324 3.0 8.0 0.00 0.00 0.00 87 1018.8
20260507132048 57 65 1.0 10.0 0.00 0.00 0.00 87 1018.6
20260507131554 57 312 2.0 10.0 0.00 0.00 0.00 87 1018.6
20260507131048 57 344 3.0 10.0 0.00 0.00 0.00 87 1018.4
20260507130546 57 304 2.0 10.0 0.00 0.00 0.00 87 1018.3
20260507130104 57 285 3.0 10.0 0.00 0.00 0.00 87 1018.4
20260507125547 57 333 2.0 10.0 0.00 0.00 0.00 87 1018.2
20260507125046 57 311 3.0 12.0 0.00 0.00 0.00 87 1018.0
20260507124557 57 330 4.0 12.0 0.00 0.00 0.00 87 1017.9
20260507124048 57 270 4.0 10.0 0.00 0.00 0.00 88 1017.9
20260507123546 57 352 3.0 10.0 0.00 0.00 0.00 88 1017.8
20260507123056 57 269 2.0 9.0 0.00 0.00 0.00 88 1017.9